Weather History for KEED - February, 2014

Change the Weather History Date:

Sunday, February 16, 2014

  Actual Average Record
Temperature  
Mean Temperature 72 °F -  
Max Temperature 84 °F 70 °F 84 °F (2014)
Min Temperature 59 °F 44 °F 29 °F (1990)
Cooling Degree Days 7    
Growing Degree Days 22 (Base 50)    
Moisture  
Dew Point 24 °F    
Average Humidity 18    
Maximum Humidity 26    
Minimum Humidity 11    
Precipitation  
Precipitation 0.00 in - - ()
Sea Level Pressure  
Sea Level Pressure 29.90 in    
Wind  
Wind Speed 5 mph (WSW)    
Max Wind Speed 14 mph    
Max Gust Speed -    
Visibility 10 miles    
Events      
Averages and records for this station are not official NWS values.
T = Trace of Precipitation, MM = Missing Value Source: NWS Daily Summary

Daily Weather History Graph

Daily Weather History Graph

Search for Another Location

Airport or City:

Trip Planner

Search our weather history database for the weather conditions in past years. The results will help you decide how hot, cold, wet, or windy it might be!

Date:

Astronomy

Feb. 16, 2014 Rise Set
Actual Time 6:22 AM PST 5:22 PM PST
Civil Twilight 5:57 AM PST 5:48 PM PST
Nautical Twilight 5:27 AM PST 6:17 PM PST
Astronomical Twilight 4:58 AM PST 6:47 PM PST
Moon 7:16 PM PST (2/16) 7:00 AM PST (2/16)
Length of Visible Light 11h 51m
Length of Day
10h 59m
Full, 97% of the Moon is Illuminated
Feb 16
Full
Feb 22
Last Quarter
Mar 1
New
Mar 8
First Quarter
Mar 16
Full

Hourly Weather History & Observations

Time (PST) Temp. Dew Point Humidity Pressure Visibility Wind Dir Wind Speed Gust Speed Precip Events Conditions
12:56 AM 63.0 °F 21.0 °F 20% 29.86 in 10.0 mi SW 6.9 mph - N/A   Clear
1:56 AM 66.0 °F 21.0 °F 18% 29.85 in 10.0 mi NW 3.5 mph - N/A   Clear
2:56 AM 64.9 °F 21.0 °F 19% 29.84 in 10.0 mi Calm Calm - N/A   Clear
3:56 AM 60.1 °F 21.0 °F 22% 29.84 in 10.0 mi NW 4.6 mph - N/A   Clear
4:56 AM 64.9 °F 21.0 °F 19% 29.84 in 10.0 mi Calm Calm - N/A   Clear
5:56 AM 60.1 °F 21.9 °F 23% 29.89 in 10.0 mi NW 4.6 mph - N/A   Clear
6:56 AM 62.1 °F 21.9 °F 21% 29.91 in 10.0 mi SW 8.1 mph - N/A   Clear
7:56 AM 66.9 °F 24.1 °F 20% 29.91 in 10.0 mi Variable 5.8 mph - N/A   Clear
8:56 AM 63.0 °F 24.1 °F 23% 29.94 in 10.0 mi West 3.5 mph - N/A   Clear
9:56 AM 69.1 °F 25.0 °F 19% 29.94 in 10.0 mi West 3.5 mph - N/A   Clear
10:56 AM 73.0 °F 26.1 °F 17% 29.92 in 10.0 mi Calm Calm - N/A   Clear
11:56 AM 75.0 °F 26.1 °F 16% 29.91 in 10.0 mi Calm Calm - N/A   Clear
12:56 PM 80.1 °F 27.0 °F 14% 29.88 in 10.0 mi ENE 6.9 mph - N/A   Clear
1:56 PM 82.0 °F 26.1 °F 13% 29.86 in 10.0 mi ESE 10.4 mph - N/A   Clear
2:56 PM 84.9 °F 25.0 °F 11% 29.84 in 10.0 mi WSW 13.8 mph - N/A   Clear
3:56 PM 84.9 °F 25.0 °F 11% 29.85 in 10.0 mi SSW 8.1 mph - N/A   Clear
4:56 PM 82.0 °F 25.0 °F 12% 29.87 in 10.0 mi SSW 5.8 mph - N/A   Clear
5:56 PM 77.0 °F 24.1 °F 14% 29.90 in 10.0 mi WSW 10.4 mph - N/A   Clear
6:56 PM 73.9 °F 25.0 °F 16% 29.92 in 10.0 mi WSW 11.5 mph - N/A   Clear
7:56 PM 72.0 °F 25.0 °F 17% 29.94 in 10.0 mi SW 5.8 mph - N/A   Clear
8:56 PM 68.0 °F 25.0 °F 20% 29.96 in 10.0 mi West 10.4 mph - N/A   Clear
9:56 PM 64.9 °F 25.0 °F 22% 29.97 in 10.0 mi SSW 3.5 mph - N/A   Clear
10:56 PM 61.0 °F 24.1 °F 24% 29.98 in 10.0 mi West 6.9 mph - N/A   Clear
11:56 PM 59.0 °F 24.1 °F 26% 29.98 in 10.0 mi NW 3.5 mph - N/A   Clear